Theta_e
322 322 325 336 345 350 351 350 349 351 352 349 350 350 348 350 350 349 349 350 349 349 350 349 349 348 349 348 348 348 348 348 348 348 347 346 346 346 346 346 346 346 345 345 346 346 346 348 349 348 348 348 348 347 348 348 350 350 351 353 352 352 352 352 351 352 352 352 352 353 353 353 355 356 355 354 351 353 353 353 353 351 348 351 354
318 322 334 340 345 347 348 349 349 349 349 348 349 348 350 349 350 351 350 350 350 349 350 350 350 350 349 349 348 348 348 347 347 347 347 347 347 346 346 346 346 346 346 345 345 346 347 347 347 346 348 347 347 347 347 348 348 350 351 351 352 352 351 351 351 352 351 350 348 350 352 353 355 353 354 352 350 350 353 353 352 348 344 352 353
319 328 333 336 340 343 342 342 345 346 346 347 347 349 350 349 350 350 350 350 350 350 349 350 350 350 350 349 348 348 349 348 347 347 347 346 346 346 347 347 347 346 346 346 346 346 346 346 346 346 346 346 346 346 346 347 348 351 351 350 352 352 351 351 351 351 350 351 350 350 349 350 354 353 353 353 351 351 351 353 351 349 346 354 353
319 323 327 331 335 338 341 340 341 341 341 342 344 345 346 346 347 348 349 350 350 350 349 349 349 350 349 349 349 349 347 348 348 348 347 347 348 348 349 347 347 347 346 347 347 347 346 346 345 346 345 347 345 345 346 347 347 351 352 351 350 351 351 351 350 350 350 350 349 347 347 348 349 353 353 352 349 352 350 352 350 349 352 355 354
315 317 319 323 325 332 336 340 341 341 341 342 342 343 344 345 346 346 346 347 347 349 349 348 350 349 349 348 350 349 349 348 348 349 348 348 347 348 349 350 348 347 347 348 348 347 346 346 346 345 345 346 346 345 346 347 346 347 350 351 351 350 350 351 350 350 350 348 348 347 346 346 346 351 353 353 351 350 349 351 351 352 354 355 353
313 313 315 318 321 326 333 336 338 340 341 342 343 343 343 343 343 344 345 346 347 347 348 349 349 349 347 349 347 346 345 348 349 349 349 349 347 347 347 350 349 348 348 348 348 346 346 346 346 345 345 345 345 345 345 346 347 347 348 350 351 350 351 351 350 349 349 347 346 344 345 345 345 347 353 351 350 349 347 352 352 353 354 352 352
310 311 312 315 320 326 333 334 335 336 338 338 339 341 342 342 342 343 343 344 344 344 347 346 347 349 348 349 348 347 347 347 348 350 350 348 347 346 348 348 347 346 346 346 346 345 345 346 346 345 344 347 345 343 343 344 346 346 348 350 350 350 350 350 349 348 347 346 344 343 343 344 344 344 351 352 350 349 349 353 353 353 353 353 351
307 308 309 313 318 327 331 333 334 335 335 336 336 337 338 340 341 341 342 343 343 343 344 345 345 346 347 346 347 347 346 346 345 344 345 346 347 348 349 349 347 347 347 347 347 346 346 346 347 346 347 348 347 345 344 343 345 347 348 349 349 349 350 350 348 347 346 346 344 343 343 344 344 344 351 351 349 351 352 352 352 351 352 352 349
304 305 307 309 315 324 326 330 332 333 334 334 334 335 336 337 339 340 341 341 341 342 343 343 344 344 345 344 345 346 346 346 347 347 347 343 344 346 348 348 347 347 347 347 348 348 347 348 348 348 347 347 348 348 346 344 344 346 348 349 349 349 350 349 347 345 345 345 344 342 343 343 344 344 350 351 350 351 351 351 352 351 352 351 347
302 303 304 306 313 321 322 325 328 329 331 331 332 333 334 334 335 335 336 337 339 340 341 342 342 343 344 343 343 344 346 344 345 345 345 344 342 341 344 345 347 348 347 347 348 347 347 347 347 348 348 347 347 348 349 347 346 345 347 348 348 349 349 349 347 344 345 344 343 341 342 343 343 344 348 352 351 351 350 349 347 346 348 349 346
301 301 302 304 311 318 320 322 323 324 325 326 328 329 331 332 333 333 334 335 335 336 336 339 340 342 342 343 342 343 343 344 344 344 344 344 344 344 343 345 344 345 347 347 348 348 347 347 347 346 348 347 348 348 347 348 348 348 347 348 348 349 349 348 344 343 343 343 341 341 341 343 343 344 349 351 350 351 349 347 345 345 347 349 349
300 300 300 303 312 315 316 318 320 321 322 323 324 325 325 326 328 330 331 332 333 334 334 335 336 337 340 341 341 342 342 342 342 343 344 343 344 344 344 344 343 344 345 347 347 348 348 347 347 347 346 347 347 347 347 347 348 348 348 349 349 349 348 346 343 341 341 341 339 339 341 342 344 344 350 351 350 350 348 347 348 350 351 351 351
300 300 300 300 303 313 314 316 316 318 319 320 322 322 322 323 324 325 325 326 327 329 331 332 333 334 335 335 337 338 339 340 341 342 342 342 343 343 343 344 343 343 343 344 345 348 348 348 347 347 347 347 347 347 346 347 347 348 347 347 348 348 345 342 343 341 340 341 339 339 340 341 343 346 350 352 348 350 350 350 351 352 352 351 351
299 299 300 299 302 310 312 312 313 314 316 318 319 319 319 320 321 322 322 324 324 324 326 328 329 330 331 332 333 334 335 336 338 340 341 341 341 342 342 342 343 342 343 342 342 343 347 348 347 346 345 347 347 346 347 347 347 348 347 347 346 346 343 339 339 341 339 341 340 340 340 339 342 346 351 353 350 348 347 347 351 351 351 351 350
298 299 300 299 298 301 309 310 310 311 312 314 316 316 317 318 318 319 319 320 321 322 322 323 323 323 323 325 328 330 332 333 335 336 337 338 340 340 340 341 341 342 342 342 343 344 344 345 344 345 346 346 346 346 347 347 347 347 347 346 345 343 340 342 341 340 340 339 340 340 340 339 343 348 351 353 353 350 347 348 350 351 350 350 350
299 298 298 298 298 297 300 306 307 308 309 310 311 313 313 314 315 316 317 317 318 319 319 318 318 318 319 322 325 327 329 330 332 333 335 336 336 337 338 339 340 340 341 341 342 343 344 345 343 342 345 347 347 347 346 347 346 346 345 344 342 340 337 335 340 341 341 340 340 339 339 339 343 348 351 353 353 352 348 349 350 351 351 350 349
298 298 297 297 297 296 297 299 303 305 306 307 308 309 310 311 312 313 313 314 315 316 316 314 314 315 317 319 321 323 323 326 328 330 331 332 334 335 336 336 338 339 339 341 341 341 341 342 342 342 343 346 345 346 346 345 346 345 343 341 340 339 337 332 340 340 341 339 339 340 339 338 340 347 351 353 353 351 348 348 350 351 351 350 347
297 296 296 296 296 296 296 297 297 296 297 301 304 307 308 308 309 309 310 311 312 313 313 311 311 311 312 314 315 316 318 320 323 326 326 326 329 331 331 333 335 337 338 339 340 341 341 340 341 342 344 345 345 346 346 345 345 344 342 341 339 337 334 330 338 339 340 338 338 338 339 338 339 345 350 353 353 352 347 348 350 350 351 351 348
295 295 295 295 295 295 295 295 296 295 296 296 296 299 306 305 306 307 307 308 309 309 309 308 307 308 310 311 311 311 312 314 316 317 318 320 321 323 325 330 332 334 336 337 338 338 339 340 341 341 341 343 345 345 344 343 343 341 341 339 336 333 331 331 336 339 339 339 338 337 338 339 340 344 349 352 353 352 350 348 349 348 348 350 350
294 294 294 294 294 294 294 295 295 294 295 296 296 296 303 304 304 305 305 306 306 306 307 306 305 305 307 309 309 306 308 307 311 310 314 316 318 319 323 327 329 331 333 334 334 335 337 338 339 340 341 342 342 341 341 341 341 341 338 336 333 328 334 336 335 337 339 339 337 337 337 339 343 346 348 351 352 351 350 347 345 346 348 349 349
294 293 293 294 294 294 293 294 294 294 294 295 296 296 299 302 299 302 303 304 304 305 305 304 304 302 303 305 304 300 302 301 302 304 309 310 313 315 319 319 324 326 328 330 331 332 334 336 337 339 339 340 337 335 334 337 339 339 338 335 329 333 336 337 337 336 338 338 337 337 336 339 343 347 349 350 352 349 348 346 346 347 346 347 350
291 292 292 293 293 293 293 293 293 293 293 295 296 296 297 298 294 294 296 298 300 303 298 298 301 296 302 300 299 299 299 299 299 306 304 306 308 312 313 312 314 316 318 321 325 329 332 333 335 336 337 337 334 335 334 331 332 334 333 330 333 335 336 338 338 337 337 338 337 336 336 339 343 346 348 349 350 350 349 346 346 347 346 346 348
290 290 291 292 292 292 293 292 293 293 293 293 295 295 294 294 293 294 295 298 298 297 295 295 294 295 296 297 297 297 298 297 298 302 304 306 306 309 309 309 311 315 318 320 322 326 329 331 332 333 333 332 333 334 334 335 335 326 323 329 334 335 336 336 337 337 337 337 337 335 336 339 343 346 348 349 349 348 344 347 347 346 347 346 346
289 290 291 294 292 292 292 292 293 293 293 292 294 293 294 293 292 293 293 293 294 295 294 294 294 294 295 296 295 296 296 296 302 303 303 300 301 306 307 307 309 313 316 316 317 321 324 326 328 329 329 328 333 334 334 334 334 334 332 333 334 335 336 336 336 336 337 336 337 334 336 341 343 344 346 348 349 348 347 344 348 347 347 348 347
289 292 291 292 291 291 291 292 292 293 292 291 292 292 294 292 291 291 293 292 293 293 293 293 293 294 295 295 295 295 295 294 295 296 296 297 298 300 300 301 304 310 313 309 312 314 317 320 324 326 328 330 331 332 333 334 333 333 333 333 333 334 335 336 336 336 336 337 335 332 334 338 342 344 346 345 349 346 347 344 347 346 346 346 346
291 289 289 288 290 291 291 291 291 291 291 290 291 293 293 291 291 291 292 291 293 292 292 292 292 293 294 295 295 294 294 294 294 294 294 295 296 297 297 299 304 308 307 306 309 312 315 318 321 324 326 328 329 332 333 332 333 333 333 333 333 333 334 335 335 335 336 336 335 330 332 335 340 344 345 348 348 348 346 347 347 347 347 345 347
288 288 288 288 292 289 290 290 290 291 290 290 290 290 290 291 290 292 292 290 292 291 290 291 292 293 293 294 294 293 293 293 294 294 294 294 294 295 296 298 303 304 303 305 308 311 311 313 315 319 322 324 326 328 330 332 333 332 332 332 333 333 333 334 335 335 336 336 331 328 329 331 338 343 345 347 348 348 345 346 346 344 344 347 348
288 288 288 288 290 289 289 289 290 291 290 290 289 289 289 290 291 293 290 292 291 289 289 290 292 291 293 293 294 293 293 293 293 293 293 294 294 294 295 298 300 301 302 305 307 307 306 309 311 315 318 321 322 324 327 329 331 332 331 331 332 332 333 333 334 335 335 335 335 329 327 329 332 337 343 346 346 345 344 344 344 344 342 346 348
288 288 288 288 289 291 289 288 289 289 290 290 289 289 289 290 289 289 289 296 289 289 289 290 289 290 291 292 292 292 293 292 292 293 293 293 294 294 294 295 297 299 301 304 305 303 303 306 307 310 313 316 319 321 324 326 329 330 330 331 331 331 331 333 333 334 334 334 334 331 326 328 331 334 338 344 346 345 348 347 345 346 347 349 348
288 288 287 288 288 289 288 288 289 290 291 289 289 289 289 288 289 289 289 292 288 289 289 289 289 289 289 290 291 292 292 292 292 292 292 292 293 293 293 294 295 297 301 302 302 301 302 303 304 306 309 312 316 319 320 323 325 327 330 330 330 331 331 332 332 333 333 334 334 332 325 325 328 334 336 339 344 346 348 345 343 345 346 346 346
289 288 288 288 291 288 288 288 288 291 290 289 289 289 289 288 289 289 289 289 289 290 289 289 289 289 290 290 291 291 292 291 292 292 292 292 292 292 292 293 294 296 298 299 300 300 301 302 302 304 306 309 312 316 319 320 323 325 326 328 329 330 331 331 332 332 332 333 333 332 331 323 325 329 332 336 340 343 347 345 343 347 347 346 345
286 288 287 289 288 287 287 288 288 289 290 288 289 289 288 288 289 288 288 289 289 288 288 288 289 288 289 290 290 290 291 291 291 291 292 292 291 291 292 292 293 295 297 298 298 299 299 300 301 302 304 306 308 312 316 318 320 323 325 326 329 329 329 330 331 331 332 332 332 332 331 329 322 324 327 333 338 340 343 343 342 342 344 346 346
286 287 288 288 286 287 289 289 288 288 287 287 288 287 288 288 288 288 288 290 288 288 288 288 288 289 289 289 289 290 291 290 290 291 292 291 291 291 291 292 293 294 296 297 297 297 298 298 299 301 302 303 305 307 311 315 317 320 323 325 326 327 329 330 329 330 330 331 331 331 331 330 329 321 322 325 332 337 341 341 340 343 344 347 346
287 288 287 286 289 290 290 291 290 287 289 288 289 287 287 288 289 288 288 288 287 287 288 287 288 288 289 289 289 289 290 290 289 289 290 290 290 291 291 291 292 293 295 296 295 296 296 297 298 299 300 300 301 304 307 309 312 316 320 323 325 326 328 329 329 329 330 330 330 330 330 330 329 329 327 321 323 328 335 339 341 341 341 343 343
288 286 286 286 286 286 290 289 290 287 287 286 287 287 288 287 287 287 287 287 287 287 287 287 287 288 288 288 289 289 288 288 288 289 289 289 289 290 290 290 292 293 293 294 295 295 296 296 297 297 298 299 301 303 304 306 309 312 315 319 321 324 326 327 328 328 328 329 330 329 329 329 328 328 328 328 320 321 327 334 339 341 342 342 342
285 286 285 287 285 285 288 286 287 286 286 288 286 287 286 287 287 289 286 286 286 286 286 286 286 287 287 287 287 287 287 287 287 287 288 289 288 288 289 290 291 291 292 293 294 294 295 296 297 297 296 296 298 300 301 301 303 306 310 314 318 321 323 326 327 327 328 328 328 328 329 328 328 328 323 328 328 325 322 327 334 338 340 339 341
285 285 285 285 285 284 286 286 286 286 286 285 286 286 287 286 286 286 286 286 285 285 285 285 285 286 286 286 286 286 286 286 286 287 286 285 285 286 287 288 289 290 291 292 293 294 294 295 296 296 296 295 297 297 298 299 300 302 305 310 313 317 321 324 325 327 327 326 327 328 328 328 327 319 326 326 328 329 324 323 328 332 332 335 339
285 285 284 284 285 285 285 287 287 286 286 286 286 286 286 286 285 285 286 285 284 284 284 285 284 285 285 285 285 285 286 285 285 286 285 285 285 285 285 286 286 287 289 291 292 294 295 295 294 295 295 295 295 295 296 297 299 301 303 306 310 314 318 322 324 321 325 325 326 326 327 328 327 327 326 326 326 328 329 325 323 325 324 327 334
283 283 283 284 284 284 287 286 287 285 285 285 286 286 285 284 284 284 283 283 283 283 284 284 284 284 284 285 285 285 285 284 284 285 284 284 284 284 284 284 285 285 286 288 291 293 294 295 294 293 294 295 295 295 296 297 298 300 302 304 308 311 314 319 322 323 324 325 325 324 327 327 327 327 326 326 326 327 328 330 329 328 330 323 331
283 282 285 283 283 283 284 284 285 284 285 284 285 284 283 283 282 283 282 282 282 283 283 283 283 283 284 284 284 284 284 284 284 284 284 284 283 283 283 284 284 284 284 285 288 292 293 293 292 292 293 294 295 295 295 295 296 297 298 301 305 309 312 315 319 322 322 324 324 325 325 326 326 326 326 326 326 325 327 329 327 330 331 327 325
282 282 282 283 283 283 284 283 284 284 284 284 284 283 282 282 281 281 281 281 282 283 282 282 283 283 284 283 283 283 283 283 284 283 283 284 283 283 283 283 283 283 283 283 285 288 291 292 293 294 293 293 293 294 294 296 295 294 296 298 302 308 312 315 318 321 322 323 324 324 324 324 325 325 326 326 325 325 326 327 329 330 330 332 326
282 282 281 282 282 283 283 283 283 283 283 284 283 282 282 281 281 280 280 280 280 280 280 281 282 284 283 282 282 282 282 282 283 283 283 282 282 282 282 282 282 282 283 284 284 287 289 291 293 293 294 292 292 294 294 295 292 292 292 294 297 300 305 313 317 319 321 323 323 324 324 324 324 325 325 325 325 324 325 326 328 329 330 331 331
281 281 281 282 283 283 283 283 283 283 283 284 283 282 282 282 281 280 280 280 281 281 281 282 282 282 281 282 282 282 282 281 282 282 282 282 282 282 282 282 282 283 283 283 284 284 287 289 291 291 291 292 292 294 294 295 292 294 295 294 291 293 300 307 311 316 320 321 323 323 323 323 323 324 325 324 324 324 324 325 326 327 329 329 330
281 281 281 282 283 284 282 282 282 282 282 284 284 282 283 283 282 281 281 280 280 282 281 281 280 280 280 281 281 281 281 281 281 281 282 281 281 281 281 282 282 283 283 282 283 284 285 287 288 290 291 289 291 291 294 295 295 293 288 291 294 296 294 300 307 310 315 319 320 321 322 322 323 324 324 323 323 324 324 324 324 326 327 329 329
280 280 281 281 284 282 282 282 282 282 282 283 281 282 282 280 280 280 280 280 280 279 279 278 279 280 280 279 280 280 280 280 281 281 281 281 281 281 281 282 282 281 282 281 281 283 285 287 288 289 290 290 290 291 292 294 295 296 292 290 288 288 290 300 301 305 309 312 316 319 319 321 322 322 322 323 324 324 323 323 323 324 324 326 328
280 281 281 281 281 282 282 282 282 282 282 282 281 282 280 279 278 277 277 277 276 277 276 276 277 277 277 279 279 280 280 280 280 280 280 281 280 281 281 281 280 280 281 280 281 282 283 285 288 290 291 292 291 291 291 293 294 294 296 295 293 289 291 293 293 291 301 303 308 314 317 319 322 321 321 322 322 322 322 323 323 323 323 324 326
280 281 280 281 281 281 281 281 281 282 282 281 281 282 279 278 278 277 277 276 276 277 277 278 277 278 279 278 278 279 279 279 279 279 279 280 280 280 279 279 279 279 280 280 280 281 282 284 286 289 291 292 292 290 291 292 291 293 295 296 296 296 296 293 289 294 293 301 303 308 313 315 318 320 320 320 321 322 322 321 322 322 322 323 324
281 280 280 281 281 281 281 281 281 282 281 280 280 280 279 278 277 277 278 277 276 276 277 277 278 279 278 277 278 278 278 278 278 278 279 278 279 278 279 279 279 279 280 280 279 280 281 284 286 288 290 291 292 292 292 292 290 290 293 293 294 296 297 297 296 293 292 291 300 304 307 313 314 317 319 319 320 320 320 320 321 320 321 321 322
279 280 280 281 281 280 281 280 280 280 280 279 281 279 280 279 277 277 276 277 277 277 277 278 277 277 276 277 277 277 277 278 278 277 277 277 278 278 278 279 279 278 279 279 279 279 279 280 282 284 286 288 290 292 293 292 291 291 290 291 293 294 295 295 295 295 293 292 294 302 304 304 310 313 316 319 320 320 319 319 320 320 318 319 320
280 281 281 280 280 280 280 281 279 279 280 279 279 278 278 279 277 276 276 276 276 276 276 275 276 276 275 275 276 276 276 276 276 277 277 277 277 277 277 276 276 276 278 277 278 278 278 279 281 283 284 285 288 290 292 293 293 293 292 292 291 292 292 292 292 292 294 295 293 298 305 305 305 309 312 316 318 318 319 319 318 318 318 319 320
279 279 280 280 279 280 279 278 279 279 279 278 278 278 277 277 277 276 276 275 275 275 274 274 275 274 274 274 275 275 275 275 276 276 276 276 276 276 276 275 276 277 278 277 277 276 277 277 278 280 282 284 286 288 291 293 293 293 292 293 292 292 291 289 290 291 292 292 294 299 304 307 308 307 309 314 315 317 318 318 317 317 317 318 319
Wind_Speed
14 13 13 13 16 17 13 8 7 7 7 6 5 6 4 5 6 5 1 4 5 4 5 4 6 6 6 5 6 6 6 6 6 6 5 5 4 4 5 6 6 6 7 8 8 9 9 9 10 9 9 9 9 9 9 9 8 8 8 9 9 9 10 9 9 7 7 6 6 8 8 8 11 12 12 11 12 12 11 12 11 8 7 8 13
13 13 9 10 16 18 18 15 12 10 8 8 7 6 7 5 6 6 4 5 6 5 6 6 6 7 7 8 7 8 8 7 7 8 7 7 7 7 7 7 7 7 7 8 8 9 10 11 11 11 11 11 10 9 9 9 9 7 7 8 8 9 8 9 9 7 7 7 4 6 7 9 13 11 10 10 9 12 11 12 11 7 3 11 13
8 9 10 13 18 20 19 18 17 16 15 16 15 13 11 6 6 6 7 7 7 8 7 7 7 9 8 8 10 10 10 10 9 8 9 9 9 8 8 8 8 9 9 8 9 10 10 10 11 11 11 11 11 10 9 9 9 7 7 8 8 8 9 9 9 8 8 7 7 6 8 9 11 11 11 13 12 14 12 12 11 10 6 14 11
9 9 9 11 16 19 19 18 18 18 18 18 18 16 14 15 14 12 12 10 10 10 10 12 11 10 10 7 8 9 10 10 11 13 11 10 10 9 9 10 10 10 10 10 10 10 9 10 10 11 12 9 10 11 11 9 8 8 7 8 9 9 9 9 9 8 8 9 8 7 4 4 6 9 12 13 13 16 12 12 12 13 13 14 14
8 9 9 9 11 14 20 18 18 18 18 18 18 18 18 17 15 14 14 12 12 12 12 12 13 12 14 11 9 10 10 11 11 11 11 13 13 11 9 8 10 11 11 11 10 10 11 11 11 11 11 10 10 11 10 9 9 10 9 9 9 10 10 9 8 9 8 9 8 6 4 4 4 7 13 14 14 15 12 12 13 14 14 14 15
7 7 8 8 9 12 19 19 19 19 18 18 18 18 17 18 18 16 14 16 15 14 13 13 13 13 12 15 13 14 13 10 11 12 12 11 12 14 10 7 9 10 10 11 12 11 12 12 12 12 12 10 10 10 10 11 10 10 11 11 10 10 10 9 8 8 9 8 8 5 4 4 3 4 14 14 15 13 12 12 13 13 14 13 15
6 6 8 9 9 12 18 20 20 19 19 20 20 20 19 18 17 17 18 17 15 16 16 15 15 15 14 12 12 10 12 15 14 13 12 12 13 15 12 10 11 11 12 13 13 12 12 12 12 13 12 9 8 10 11 11 11 11 11 12 11 11 11 10 8 8 8 6 4 5 4 4 4 3 13 15 13 14 15 14 14 14 15 16 17
6 7 9 9 9 13 19 20 20 20 20 20 20 20 19 20 18 18 18 17 18 18 18 18 17 15 15 14 13 13 12 14 14 16 16 14 13 14 12 13 12 14 14 14 14 13 13 12 12 12 13 10 8 10 10 11 11 11 11 11 12 11 11 10 9 8 8 6 5 5 5 4 4 3 8 15 17 18 17 17 13 15 16 17 13
9 9 9 10 10 19 20 20 21 21 21 21 21 20 21 20 20 20 20 19 19 18 19 19 18 18 17 15 15 15 15 12 13 15 12 15 17 17 15 13 13 14 14 15 15 14 14 13 13 14 13 13 10 8 9 10 11 12 12 12 12 12 10 9 9 9 6 5 5 5 5 4 4 4 8 17 17 17 17 14 15 16 17 14 11
8 8 9 9 11 20 21 21 22 21 21 21 21 21 21 21 21 21 21 21 20 20 20 20 20 19 19 18 16 16 15 14 13 13 15 13 13 19 20 18 15 14 13 14 14 14 14 14 14 14 14 13 12 9 7 9 11 11 12 13 13 13 11 10 9 8 5 5 5 6 4 6 4 5 8 17 18 18 17 13 8 11 9 14 14
9 8 8 10 14 21 23 23 22 22 22 22 22 22 22 22 22 22 22 21 21 21 21 21 21 21 21 20 20 18 17 15 15 14 14 15 15 15 17 16 16 17 15 15 14 13 14 15 15 15 15 13 11 10 11 10 9 11 12 13 14 12 12 11 9 5 5 5 4 5 5 10 6 5 11 17 18 19 17 13 11 13 14 16 17
8 8 8 8 13 22 24 24 23 23 23 23 23 23 23 23 23 23 23 23 22 22 22 21 21 21 21 22 21 21 21 21 17 16 15 15 15 15 14 15 17 20 18 14 13 14 14 14 15 15 15 12 9 9 11 12 11 11 13 13 13 13 12 12 8 5 4 5 7 6 7 6 6 7 13 16 17 18 14 14 16 17 17 17 18
8 7 8 7 8 18 23 24 24 24 23 23 24 24 23 23 23 23 23 23 23 23 22 22 22 22 22 21 21 21 21 21 21 21 19 17 16 16 16 17 17 17 19 20 16 15 16 16 15 16 15 13 11 11 11 11 12 11 11 13 14 13 12 12 7 6 5 5 6 8 7 7 7 12 15 19 18 18 18 17 19 18 18 19 19
7 8 7 7 7 13 20 22 23 24 24 24 24 24 24 23 23 23 23 23 23 23 23 23 23 23 23 22 22 21 21 21 21 20 20 20 20 19 18 17 17 18 16 16 19 21 19 18 16 15 15 13 12 11 11 10 11 12 12 12 13 14 12 10 8 6 7 6 7 8 8 7 7 15 18 18 20 22 19 21 20 19 19 20 22
7 7 6 7 7 8 15 19 20 21 22 23 23 24 25 24 24 24 23 23 23 23 24 24 24 24 24 23 23 22 22 21 20 21 21 21 20 20 21 21 20 19 19 17 20 18 17 19 22 18 15 12 12 12 12 12 13 13 12 12 13 14 13 7 7 6 7 8 7 8 9 8 11 16 17 19 18 21 21 21 21 21 19 21 19
5 5 5 8 8 7 8 13 17 19 19 21 22 22 23 24 24 24 24 24 24 23 23 24 24 25 25 24 24 23 22 22 22 22 22 21 21 21 20 20 21 22 21 19 19 19 18 18 19 21 15 13 13 13 13 13 14 14 13 12 13 13 13 10 7 7 7 8 8 7 8 8 15 16 18 21 20 21 23 22 22 21 21 21 21
6 6 8 9 8 8 8 9 11 15 15 17 19 21 22 23 23 23 23 23 24 23 23 24 24 24 25 25 25 24 23 23 23 23 23 22 22 22 21 22 21 20 21 23 21 21 20 20 20 20 17 15 15 14 15 15 14 15 14 13 13 13 14 12 8 8 8 9 8 8 8 8 12 18 19 20 22 19 20 21 23 23 22 21 23
6 7 9 7 9 8 8 9 9 9 9 10 13 18 21 22 22 22 22 22 23 23 23 24 24 24 23 23 23 23 24 24 23 24 24 24 23 23 22 22 22 21 20 21 22 23 22 21 20 20 19 17 17 16 16 15 15 15 15 13 13 13 13 13 8 8 9 9 9 8 8 10 14 18 21 22 23 20 22 25 22 21 22 22 21
6 7 6 8 9 8 9 8 9 9 9 8 7 9 17 19 20 21 21 22 22 22 21 23 22 22 22 21 21 20 20 22 23 23 24 23 22 21 21 24 24 24 22 21 21 22 21 21 20 20 20 20 19 18 17 17 15 15 15 14 13 13 14 11 9 8 9 9 9 9 9 14 17 18 21 22 23 22 22 23 18 21 22 22 22
5 6 7 6 6 7 7 8 9 10 9 8 8 8 11 16 16 18 18 20 21 21 21 20 18 16 17 17 16 14 14 13 19 16 20 22 21 19 21 24 25 24 22 22 22 23 23 22 22 22 20 21 22 20 17 17 17 16 15 15 13 14 10 7 8 10 9 9 9 9 12 17 21 20 22 23 24 23 18 19 19 20 21 23 22
5 7 6 6 5 6 7 7 8 9 9 8 8 8 10 14 10 12 14 16 17 17 17 14 12 11 14 14 13 11 10 10 12 12 15 15 19 20 22 25 25 25 25 24 24 24 24 24 24 24 23 22 18 18 19 17 17 16 16 15 15 9 8 8 9 9 9 9 10 10 16 18 22 23 24 24 24 25 20 24 21 22 23 24 22
6 6 6 6 6 6 6 6 6 7 7 6 5 6 6 9 9 9 8 10 10 10 9 9 10 9 11 10 9 9 9 8 10 11 10 13 13 21 21 24 25 24 25 25 25 23 22 22 24 24 24 23 20 13 12 14 17 16 15 16 12 8 8 9 9 9 10 10 10 11 17 21 22 24 25 24 24 24 20 23 25 26 25 25 24
6 6 6 7 5 5 5 5 6 6 6 6 5 6 6 6 7 8 7 10 10 9 9 9 7 8 8 8 8 7 8 7 8 11 11 15 13 17 20 23 23 22 23 25 23 24 22 22 22 22 23 22 15 10 10 9 8 13 14 12 9 8 8 9 10 9 9 10 10 15 17 23 22 24 26 25 25 24 22 25 27 25 25 24 22
4 4 4 5 6 6 6 5 6 7 7 7 6 6 6 6 6 6 7 7 7 7 8 9 9 9 8 7 7 7 7 6 8 11 11 9 10 13 16 17 18 19 20 16 20 20 25 22 20 20 15 10 10 9 9 9 9 7 7 8 9 9 10 9 9 9 9 11 11 17 19 24 24 25 27 27 28 25 20 25 26 25 27 23 23
1 2 3 4 5 5 5 5 5 5 5 6 6 7 6 6 6 6 6 6 6 7 7 8 7 8 9 8 8 7 7 6 6 6 7 7 8 9 9 9 9 10 15 12 12 13 13 12 12 12 10 11 11 10 9 10 9 8 9 9 9 10 10 9 9 10 10 10 11 18 20 22 25 26 28 30 29 27 22 27 26 29 26 26 26
1 2 3 3 4 4 4 4 4 5 4 5 5 5 5 5 6 7 6 6 5 6 6 7 8 8 7 8 8 9 9 8 8 7 7 7 7 7 8 9 10 9 10 10 10 10 11 11 11 11 10 11 12 11 11 11 10 10 10 9 10 10 10 10 10 10 10 10 12 18 21 22 25 28 28 28 28 28 27 26 28 30 30 29 29
2 2 2 3 3 4 4 3 4 4 5 4 5 5 5 5 5 6 5 6 6 6 7 6 7 6 7 7 8 9 9 9 9 9 9 8 7 7 7 7 9 9 8 9 10 10 10 11 11 11 11 12 12 12 11 11 11 11 11 11 10 10 10 10 10 10 10 10 12 19 21 22 23 28 31 30 31 30 30 28 29 28 30 30 28
2 3 2 3 3 4 4 4 4 4 4 4 4 5 5 5 5 4 5 5 6 6 6 6 6 7 6 7 6 6 8 9 9 10 10 9 9 8 7 7 7 7 8 8 9 9 10 10 11 12 12 12 13 13 12 12 12 12 12 12 12 11 11 11 10 11 11 11 11 16 21 22 23 24 30 31 32 34 33 32 30 31 32 31 29
2 2 3 3 3 3 4 4 4 4 4 4 4 5 5 5 5 5 6 5 6 6 6 6 6 6 5 6 5 7 7 7 8 8 8 9 9 9 9 8 7 7 7 8 8 9 9 9 10 11 12 13 11 12 12 12 12 11 12 12 13 13 14 12 11 11 11 11 11 13 20 22 23 24 25 31 31 35 30 28 32 32 29 28 28
1 2 2 2 3 3 4 4 4 4 5 4 4 4 5 4 5 4 5 4 5 6 5 5 6 6 6 6 6 6 7 8 9 8 8 9 9 9 9 9 9 8 7 8 7 8 9 9 10 10 12 13 12 12 11 13 13 13 13 13 14 14 13 12 12 11 11 11 11 12 19 21 23 25 25 27 30 33 30 29 32 30 31 34 34
1 1 2 2 3 2 4 4 4 4 4 3 3 4 4 4 4 5 5 5 6 5 6 6 6 6 6 7 6 6 7 7 8 9 8 8 8 9 9 9 10 9 8 8 6 8 8 9 10 10 10 11 12 12 11 13 13 13 14 14 15 13 12 12 12 12 12 11 11 11 15 21 22 24 25 26 28 30 31 29 30 29 31 34 34
3 1 2 2 2 2 3 4 3 3 3 4 3 4 4 4 4 4 4 4 4 5 5 6 6 6 6 6 6 6 6 6 7 8 9 10 9 8 8 8 10 10 10 9 9 8 9 9 9 9 10 10 11 12 12 12 13 13 13 13 12 12 13 13 12 13 12 12 12 11 12 14 20 22 24 27 27 28 25 30 32 31 34 33 32
3 3 1 1 1 1 1 4 3 4 3 4 4 3 3 3 4 3 4 5 6 6 7 7 7 7 6 6 6 5 5 6 7 8 10 9 10 9 9 8 8 9 10 12 11 9 8 8 9 8 9 10 10 12 12 12 12 13 12 14 13 13 13 13 12 13 13 13 12 12 12 13 13 20 25 25 27 28 26 28 29 32 32 28 29
1 1 0 2 2 1 1 2 3 3 3 3 3 3 3 3 3 4 5 6 6 7 7 7 8 8 8 7 7 8 8 9 10 11 9 9 9 9 9 9 8 9 10 10 11 10 9 9 9 9 9 9 11 11 11 13 12 12 12 12 12 13 12 13 13 13 13 13 12 12 12 12 12 12 15 25 26 26 28 29 32 32 29 27 28
1 0 1 1 2 2 1 2 2 3 3 3 3 3 2 3 3 4 6 7 6 7 8 8 8 9 8 8 9 9 10 11 12 12 12 10 10 10 9 9 9 9 10 9 10 10 10 10 8 9 9 9 9 10 11 12 14 14 14 12 13 14 12 12 13 13 14 13 12 12 12 12 13 12 13 13 21 29 28 30 31 30 28 22 26
2 1 1 1 1 2 2 1 2 3 3 3 3 3 2 2 3 4 4 6 7 8 8 8 8 8 8 9 9 10 11 11 12 12 10 10 11 11 11 11 12 11 10 10 9 10 10 10 9 7 10 10 10 11 9 12 13 15 15 13 13 14 13 12 13 12 13 12 12 13 12 13 13 13 13 12 13 18 29 29 29 29 28 27 27
2 1 0 0 2 3 2 2 2 3 4 3 3 3 2 3 5 7 7 7 7 7 7 7 7 7 7 8 10 11 12 12 13 11 11 12 12 12 12 13 12 12 12 11 10 9 10 10 10 8 7 10 11 11 11 11 12 14 15 16 14 14 13 13 14 13 12 13 13 13 13 14 14 15 13 12 13 13 21 28 27 26 25 22 22
1 1 1 0 1 1 2 2 3 3 3 3 3 2 3 5 6 6 5 6 6 6 6 6 6 7 8 9 10 10 10 12 12 11 11 10 10 10 11 13 14 14 13 12 11 11 10 10 11 9 8 9 10 10 11 11 11 13 14 15 16 14 14 14 14 13 12 13 14 15 14 13 13 14 14 14 14 13 13 20 27 26 24 23 24
1 0 0 1 1 1 2 2 2 3 3 3 2 3 5 5 4 5 4 4 5 4 5 6 6 7 7 9 10 10 10 11 12 12 12 11 10 11 12 12 12 13 14 14 12 11 11 10 11 12 10 9 10 10 11 11 11 12 13 16 16 16 14 15 14 13 13 15 16 15 13 14 13 15 15 15 14 14 14 13 13 15 17 23 25
1 0 0 0 1 2 1 2 2 2 3 2 2 5 5 6 7 5 4 5 6 7 7 7 7 8 8 9 9 10 10 10 11 11 10 10 11 11 11 10 10 12 14 16 14 11 11 11 12 13 14 11 9 9 9 10 11 13 15 16 16 16 17 16 15 16 15 15 15 14 14 14 14 15 16 15 14 15 14 14 12 13 14 18 24
1 0 1 1 2 1 0 3 3 3 3 4 5 6 7 6 5 5 7 8 9 8 8 8 7 7 8 8 9 9 10 10 10 11 11 11 10 10 11 9 9 11 12 14 16 16 13 12 12 11 13 13 11 8 8 7 11 13 11 13 14 13 14 16 18 17 16 14 13 14 14 14 14 15 15 14 15 15 14 14 13 12 13 12 15
1 1 1 2 2 0 1 2 2 3 3 4 4 4 3 3 3 4 5 5 6 6 6 6 7 6 7 9 8 8 9 10 11 11 11 11 12 11 10 10 10 11 12 13 15 16 16 13 11 11 9 11 12 9 8 6 9 9 12 13 14 12 13 14 16 18 18 17 15 15 15 15 16 15 14 13 14 15 15 14 13 13 13 13 13
3 3 2 2 0 1 1 1 2 3 3 3 4 4 2 2 3 4 6 7 3 4 5 6 5 6 6 7 7 7 8 9 10 12 11 11 12 12 11 11 11 10 12 13 13 15 14 14 13 12 12 10 12 10 8 6 10 8 8 11 12 13 11 7 9 15 18 17 16 16 17 17 18 16 13 13 13 14 14 13 14 14 15 14 12
3 1 1 1 1 1 1 2 3 2 2 2 3 2 2 3 3 3 5 4 6 7 5 6 5 6 7 6 7 8 10 10 11 11 11 12 13 14 13 12 10 8 10 13 14 14 14 13 13 13 12 14 11 11 8 7 7 5 7 4 8 8 12 10 11 12 14 18 18 18 16 16 17 15 13 14 14 14 14 14 15 14 15 15 13
3 3 2 2 1 1 1 1 2 2 2 3 3 3 3 4 4 4 3 5 4 5 6 5 4 7 10 9 9 8 9 10 11 11 10 12 13 13 13 11 9 10 10 12 12 13 14 14 15 14 14 13 14 12 10 7 8 7 7 7 7 7 10 10 11 11 7 12 16 17 17 17 16 16 14 15 15 14 14 14 14 14 15 14 14
4 4 3 3 2 1 1 1 2 2 3 3 3 3 4 5 7 8 10 9 9 8 10 12 13 10 9 8 9 10 11 10 10 11 11 11 11 10 9 12 14 12 10 9 11 13 13 15 15 13 14 13 14 14 15 7 8 8 10 11 10 10 9 9 10 10 5 6 8 13 14 17 17 16 15 16 16 15 14 15 15 15 15 15 15
4 4 3 3 2 2 2 1 2 2 3 3 3 3 4 3 4 5 5 7 9 8 5 7 9 10 8 9 8 7 10 10 11 10 11 11 11 12 12 14 13 12 11 9 11 11 12 15 14 14 14 13 13 15 16 12 6 7 7 10 12 11 11 9 11 8 13 6 7 10 13 14 14 16 18 18 18 17 15 15 15 15 15 15 15
5 3 3 2 2 2 2 3 2 3 3 3 3 2 3 4 4 5 6 7 8 11 10 9 9 9 10 12 10 9 7 8 10 11 10 13 13 12 13 14 13 11 9 9 10 10 12 10 14 14 15 14 15 16 15 12 10 9 7 8 9 10 11 12 12 11 11 16 14 8 8 14 15 15 16 18 19 18 17 16 16 14 13 14 14
4 3 3 2 2 2 3 3 3 3 4 3 2 3 3 3 4 5 7 6 7 9 9 9 9 9 10 10 11 11 11 9 9 10 12 12 12 13 12 10 10 11 8 12 10 12 14 14 15 15 14 15 15 16 15 14 10 11 6 7 8 9 9 10 9 8 10 11 16 15 13 4 9 11 13 16 17 17 17 16 16 15 12 11 12
4 3 2 1 1 1 3 4 4 3 5 4 3 4 4 3 5 5 7 9 8 9 8 10 10 10 10 11 9 9 9 10 9 8 10 11 12 11 13 14 14 13 15 14 13 12 11 14 15 14 15 17 16 15 16 14 11 11 8 8 7 8 9 8 9 9 11 12 14 16 13 13 14 13 12 15 17 17 17 15 15 14 12 12 11
3 1 1 1 1 1 3 4 4 4 4 4 3 4 4 3 5 5 7 9 10 9 11 11 10 11 11 12 11 11 10 11 8 9 9 9 11 12 11 14 12 14 12 9 9 11 13 14 15 17 17 18 15 16 17 17 13 11 9 8 9 10 10 11 10 8 8 9 10 16 14 14 18 14 12 13 15 16 15 15 16 14 14 13 11
Wind_Direction
337 333 323 322 333 329 331 341 337 312 295 341 329 301 323 307 303 301 238 272 275 277 276 280 285 280 263 252 248 251 251 255 259 259 255 237 238 252 275 291 287 291 293 297 299 300 298 300 298 296 296 294 293 292 293 291 286 282 286 274 266 270 270 263 263 274 281 281 280 281 258 231 221 212 206 194 198 194 165 173 153 153 152 164 159
307 315 332 344 358 4 3 2 348 344 337 329 324 328 294 312 309 311 303 285 283 278 277 279 276 276 282 280 269 263 253 247 251 255 256 251 244 242 243 246 258 268 277 283 288 297 298 292 290 291 293 291 292 292 291 293 292 279 276 280 267 261 264 260 263 267 273 277 262 280 270 238 219 213 197 190 199 208 170 167 155 154 161 169 163
298 334 351 0 5 8 15 19 24 21 5 1 347 346 339 325 305 313 299 295 293 291 280 280 281 280 276 275 286 281 264 269 264 248 258 260 260 253 248 242 247 253 260 270 281 291 293 295 291 286 285 290 294 296 291 287 292 278 266 271 267 255 256 257 258 270 276 280 268 261 257 244 229 208 195 200 194 205 183 166 159 161 175 172 165
349 354 357 359 5 3 12 18 23 24 21 19 19 8 353 347 340 335 322 314 303 294 308 306 294 290 284 276 263 270 298 287 283 287 272 257 251 257 240 239 246 252 253 265 274 284 283 282 289 291 290 288 288 289 289 285 283 276 256 264 267 261 253 253 250 261 273 277 273 262 223 223 217 210 200 199 194 204 184 171 164 169 177 175 170
4 358 360 6 10 9 21 19 19 21 23 21 21 19 16 13 3 347 334 334 324 324 313 304 302 305 305 290 267 271 256 262 271 276 272 278 276 251 253 226 240 249 259 266 274 277 281 284 281 282 282 286 290 288 286 283 274 269 262 257 263 260 255 252 245 254 264 270 275 244 216 203 207 207 191 197 200 200 188 177 173 175 177 174 173
353 358 5 8 11 13 26 29 27 23 21 21 19 18 17 17 14 9 3 353 342 330 323 316 314 313 306 304 310 309 297 282 273 272 273 270 269 273 268 262 245 248 257 265 265 278 280 282 285 282 281 276 279 284 286 283 273 269 261 260 256 259 254 251 245 246 258 265 260 235 226 206 197 202 195 193 206 202 198 182 180 180 173 170 180
358 358 9 12 16 18 26 32 33 32 30 26 23 19 17 16 15 16 15 9 0 355 348 343 326 322 315 311 303 284 294 292 281 273 269 279 285 283 286 271 261 257 262 269 270 271 272 274 277 281 285 282 275 279 280 277 278 270 260 255 254 254 255 251 243 240 250 253 239 239 226 217 202 190 200 185 194 197 199 186 184 182 175 175 178
16 14 12 14 16 19 29 33 34 35 33 31 28 26 23 19 16 17 17 14 10 7 4 359 358 346 332 323 315 310 299 298 304 300 295 286 264 263 268 278 278 273 268 266 271 280 276 271 271 277 278 275 256 258 264 275 274 270 262 256 258 255 254 250 244 238 242 241 231 231 220 212 211 201 198 189 187 201 199 186 182 189 181 179 174
21 13 14 14 13 24 29 33 35 35 33 32 30 28 27 26 22 19 16 15 13 11 8 4 1 359 353 344 335 324 312 305 303 294 292 292 299 286 273 271 276 274 268 269 273 275 276 275 274 273 275 281 283 256 249 256 265 268 260 254 258 256 250 243 241 240 241 233 229 235 224 211 208 205 203 188 195 199 198 184 181 188 184 172 178
19 17 15 18 16 24 29 32 34 33 33 30 29 28 28 26 25 23 21 18 16 13 12 8 4 1 360 357 352 343 331 321 313 304 301 304 296 303 304 299 289 275 270 268 269 273 278 280 280 277 275 276 275 286 282 267 260 260 259 256 256 257 250 243 235 239 237 228 223 259 251 211 210 204 211 198 196 200 193 194 177 181 193 167 173
20 16 16 17 16 26 27 28 29 30 30 30 29 27 25 24 23 22 21 20 19 16 15 12 8 4 0 358 357 354 350 342 324 318 311 305 298 291 292 292 286 288 285 274 268 269 270 277 279 278 276 272 275 281 283 280 274 263 251 251 253 252 249 243 239 234 236 223 207 240 256 235 206 207 218 203 197 200 194 188 189 183 184 172 175
17 17 17 17 16 25 28 29 27 27 27 27 27 26 26 24 22 21 19 18 17 16 15 15 13 11 6 2 358 356 352 349 345 340 332 318 311 306 301 299 310 301 290 279 275 270 266 264 267 272 273 271 265 267 269 273 269 264 260 248 242 247 246 242 238 235 233 221 221 231 242 237 229 223 219 207 204 202 196 193 188 187 185 178 179
16 17 19 17 21 24 28 27 27 27 26 26 26 25 24 23 22 20 19 18 16 13 13 13 13 11 11 9 6 1 356 351 349 346 342 333 323 316 311 307 302 299 302 299 279 267 267 266 262 264 266 265 263 254 256 262 263 262 258 254 247 239 243 241 236 233 228 219 219 224 229 232 234 219 220 214 201 210 204 197 190 188 184 185 182
23 17 19 19 23 22 28 28 26 25 25 24 24 24 23 23 22 21 19 17 15 14 13 12 11 11 9 8 7 4 360 357 355 349 344 341 339 333 322 313 306 301 289 285 290 289 281 271 266 264 265 267 267 264 262 257 255 256 254 251 246 244 236 237 231 228 226 222 221 223 223 233 228 221 223 220 196 208 205 205 193 193 190 188 186
31 20 17 23 23 24 23 25 26 25 25 24 23 22 20 19 19 19 19 18 16 14 14 13 10 9 7 5 4 3 2 359 356 353 350 346 342 338 334 327 317 309 303 289 279 276 281 290 286 274 268 266 265 266 261 256 258 257 255 252 244 238 232 226 230 228 228 225 223 218 223 228 230 222 226 227 209 207 206 207 197 193 194 191 186
38 28 25 31 25 27 26 20 22 23 23 22 22 22 21 19 18 17 16 16 15 15 15 13 10 7 6 4 2 1 1 360 357 354 351 346 343 339 335 330 326 322 313 301 292 287 281 278 280 282 276 267 263 262 260 253 254 257 252 249 247 240 231 217 220 224 224 226 224 219 220 224 228 225 227 230 219 208 204 202 195 192 193 193 188
34 29 38 29 27 27 26 23 20 21 19 20 18 19 20 19 18 17 16 15 13 13 14 13 11 8 5 3 2 1 0 359 358 356 353 348 343 340 336 332 327 321 318 315 307 297 289 280 275 275 271 268 265 261 257 253 249 253 253 249 245 243 235 218 220 217 218 223 227 223 222 220 224 227 226 230 227 211 207 210 200 194 191 192 192
28 32 34 27 27 24 25 24 23 21 20 18 17 14 19 19 17 16 15 15 14 13 12 10 8 7 6 4 3 2 359 357 357 357 356 353 349 344 340 334 328 323 320 316 313 309 304 296 287 281 271 267 263 257 254 250 248 249 252 250 246 243 239 223 227 218 215 219 224 225 225 224 220 225 228 228 225 214 205 213 203 199 192 186 190
31 32 30 29 24 20 23 21 22 21 20 19 18 11 13 19 16 15 14 14 13 12 11 10 6 3 2 2 3 1 359 357 355 355 354 351 349 345 342 340 337 330 326 320 314 308 303 300 294 286 280 272 263 259 257 254 248 247 249 250 245 244 236 229 226 225 218 218 218 221 226 225 223 224 229 232 227 216 208 216 207 207 201 188 186
34 31 29 25 22 23 22 21 19 18 15 11 11 12 9 16 13 13 12 11 10 9 8 7 4 0 357 357 359 359 357 355 355 353 348 349 347 344 344 345 341 336 331 328 325 320 311 305 300 292 283 274 269 265 259 256 252 250 250 249 247 241 240 233 226 233 226 221 218 220 224 224 226 224 227 231 230 221 198 218 216 220 209 193 186
27 25 29 19 17 24 20 25 14 13 11 6 4 4 3 8 9 9 7 8 6 6 4 1 359 358 358 355 357 357 355 353 352 350 348 348 344 345 347 346 344 341 338 335 331 326 322 314 306 299 292 285 272 265 264 258 253 250 251 249 247 242 236 234 229 227 229 227 221 223 222 223 225 225 228 229 230 226 201 212 219 219 214 201 187
21 16 13 19 18 14 14 18 15 9 5 5 359 355 356 1 2 3 2 3 1 3 2 360 356 356 353 353 356 352 351 349 347 345 347 346 344 345 344 346 343 339 336 334 330 325 321 315 312 307 298 291 280 266 261 257 253 251 251 250 246 241 234 233 231 229 226 227 224 226 224 225 224 225 225 228 229 228 202 200 213 218 213 209 195
24 11 7 8 14 2 4 10 10 4 2 2 358 352 355 355 355 355 354 356 355 358 357 357 356 353 352 351 351 348 345 344 344 343 342 341 341 343 343 342 340 337 335 334 332 328 323 320 315 310 306 298 286 265 261 259 254 245 248 252 247 241 234 228 231 231 226 222 222 227 225 227 224 225 225 226 227 227 208 204 207 217 216 208 208
9 11 356 349 3 3 352 360 360 359 2 354 352 351 353 353 348 348 346 347 348 349 351 350 350 350 348 347 347 342 340 337 335 339 342 340 339 338 340 339 335 334 335 336 334 330 327 322 317 313 308 301 286 271 261 255 249 242 239 241 245 241 235 230 227 230 229 224 223 223 229 229 226 227 229 227 227 226 213 214 206 213 214 210 211
289 306 360 341 351 356 352 347 346 356 354 346 347 341 341 340 336 339 343 343 339 341 342 340 341 342 344 343 340 339 336 332 335 336 339 337 337 336 336 338 334 329 339 335 331 327 326 323 320 314 305 299 287 275 260 252 247 243 241 237 241 241 237 232 230 229 228 227 225 221 226 230 229 228 230 231 230 229 214 213 208 214 215 211 207
341 37 325 322 339 346 349 330 339 339 342 330 325 320 334 337 342 337 340 337 336 339 337 337 336 337 336 334 335 337 337 336 336 337 335 336 334 334 334 332 329 330 335 329 326 324 324 323 319 314 309 303 293 282 265 253 249 245 242 240 239 240 237 233 230 229 228 227 226 221 225 229 230 231 230 231 232 230 221 207 211 214 211 210 207
341 325 289 290 315 340 343 337 331 322 325 322 319 332 336 330 322 319 336 329 341 341 336 332 328 326 326 329 335 335 334 333 333 335 333 335 330 330 328 329 324 325 327 324 321 324 326 323 318 314 310 304 301 291 284 271 258 248 244 242 240 238 236 234 230 230 229 229 227 221 225 227 229 230 232 231 230 230 228 215 210 216 218 210 210
23 328 307 300 308 329 331 346 326 332 320 327 329 336 332 332 328 332 333 323 346 336 329 325 321 322 322 320 325 325 327 330 330 329 329 329 327 325 322 322 319 316 317 317 317 322 322 320 318 315 313 309 305 300 289 280 265 253 245 241 239 236 236 234 232 229 229 229 228 224 224 226 227 230 233 234 231 229 227 226 219 215 219 214 210
6 323 302 322 311 315 339 332 329 326 320 323 329 321 322 325 330 335 337 334 342 334 326 322 323 317 311 311 317 321 323 322 322 321 319 322 320 323 323 320 315 309 312 310 315 317 317 317 318 315 313 310 305 302 298 287 277 262 253 245 238 236 236 234 231 230 229 228 227 227 225 226 226 229 232 236 234 232 226 223 221 215 218 220 214
241 280 299 283 293 320 327 316 312 313 311 324 313 323 320 330 328 335 326 336 329 324 324 323 318 322 323 322 321 317 318 323 322 318 320 316 317 317 318 317 317 313 304 305 308 309 311 314 312 312 312 311 307 302 299 289 279 266 255 250 243 239 236 233 231 229 228 228 226 228 227 227 226 227 230 234 237 233 227 228 228 218 211 218 217
263 266 270 270 283 329 316 306 308 315 315 319 311 321 322 332 331 328 332 335 326 326 331 326 326 328 323 320 320 320 319 317 317 316 313 310 310 313 313 314 313 312 307 299 298 300 304 304 307 308 310 308 304 301 296 291 284 276 264 249 246 243 236 233 233 230 229 228 228 226 228 228 227 227 230 233 235 234 230 224 231 227 222 217 215
195 240 241 257 297 303 287 300 307 314 324 322 327 329 335 327 323 328 330 329 333 335 332 333 335 326 318 316 311 311 311 310 311 316 315 314 309 304 303 309 309 310 306 300 298 296 297 296 295 299 300 301 301 301 297 293 288 280 272 262 254 246 241 232 230 229 229 228 226 226 227 228 227 228 229 232 233 233 227 225 228 227 223 223 220
223 216 253 267 298 277 298 306 314 324 326 329 329 317 316 325 333 341 341 350 346 345 344 344 338 333 328 322 317 313 316 315 314 313 313 305 303 304 304 299 299 300 302 301 296 295 293 294 293 294 297 301 298 301 301 293 289 285 277 268 260 250 245 237 229 227 228 227 225 224 225 226 226 227 229 231 233 233 227 226 227 232 227 225 220
203 232 319 349 288 292 296 298 314 331 323 320 323 322 324 332 345 348 354 353 352 348 347 344 340 337 336 334 340 343 344 339 331 322 315 311 305 301 300 300 297 299 297 296 297 298 293 291 293 296 296 299 302 301 302 299 295 290 284 277 267 257 246 236 229 226 227 226 225 223 224 223 224 226 228 231 232 231 231 229 226 228 227 218 219
178 24 23 271 301 304 304 305 308 321 318 319 321 324 331 341 355 1 1 356 351 352 349 345 344 339 340 346 346 348 341 335 333 326 321 316 310 306 303 302 302 296 293 291 291 291 292 289 290 292 295 295 293 296 298 298 300 296 290 283 273 263 251 241 231 226 225 226 224 225 224 224 224 226 227 227 231 230 230 231 232 232 232 215 207
156 196 244 293 317 313 311 312 311 317 317 313 314 313 326 357 6 3 355 1 357 356 349 345 339 337 341 337 340 340 338 338 335 327 323 330 327 320 317 315 313 306 297 288 286 288 289 287 280 282 296 295 295 295 298 297 296 296 293 286 282 271 255 243 239 230 224 225 224 225 223 223 224 224 224 227 228 229 228 230 231 230 230 226 216
182 178 207 303 325 314 324 302 308 315 312 311 308 310 344 11 13 11 6 1 358 347 342 336 332 334 336 336 341 340 339 337 332 330 332 325 319 315 315 316 314 310 305 301 290 283 285 284 281 277 276 289 292 292 294 294 295 292 293 287 280 277 266 255 243 236 225 222 224 224 223 223 223 222 224 226 227 229 226 226 230 229 228 218 212
185 184 216 213 271 285 291 287 310 308 298 293 292 311 6 19 18 13 355 348 349 338 330 332 333 334 337 340 340 337 335 331 326 323 315 310 308 312 316 317 314 309 302 297 293 290 279 277 281 278 277 280 285 290 292 293 291 291 287 285 280 273 268 258 247 235 228 223 223 224 223 223 221 224 222 224 226 228 227 223 223 227 227 221 215
153 224 291 274 277 282 270 284 295 298 296 286 292 360 22 24 19 360 343 335 331 320 321 328 338 335 338 338 336 335 329 326 323 319 316 313 313 313 312 312 313 311 308 301 295 289 280 272 275 284 279 269 275 282 286 289 289 287 286 285 281 272 268 264 253 241 229 224 223 225 224 223 221 222 222 221 223 225 226 222 216 219 224 218 213
209 235 267 273 263 263 247 274 277 282 272 285 335 15 25 12 358 349 336 329 329 337 341 341 339 339 336 336 335 329 325 322 319 315 308 306 305 304 302 305 306 309 309 304 298 291 283 280 278 282 284 279 269 273 280 286 287 285 287 285 278 274 268 260 252 242 231 225 222 220 221 221 221 221 221 220 220 221 223 223 216 214 216 215 210
200 255 244 255 226 221 330 350 310 304 328 351 10 15 9 1 359 350 338 337 337 341 338 337 333 328 327 328 326 325 322 322 320 316 309 304 298 298 298 299 303 304 302 299 298 294 290 286 283 276 278 281 279 271 270 281 292 293 286 280 284 277 267 259 252 242 234 229 222 219 218 219 218 219 218 219 217 220 219 220 218 214 212 211 212
222 242 219 231 227 237 55 317 302 320 346 20 19 20 27 6 331 311 320 320 326 327 325 320 315 318 324 322 319 317 320 320 315 310 304 302 303 302 299 301 308 300 295 294 293 290 289 285 282 278 264 272 277 272 274 291 282 285 308 311 298 285 270 265 251 238 234 229 223 217 216 216 216 217 218 216 219 218 218 216 216 214 211 207 203
204 220 228 239 254 345 323 319 321 347 356 5 25 8 359 346 342 314 329 318 276 266 287 291 293 305 310 306 305 305 311 312 312 312 310 309 308 307 303 303 299 297 297 297 295 291 289 287 282 278 282 269 269 268 266 234 272 279 284 295 289 303 301 265 254 246 231 225 220 218 215 214 216 214 214 214 217 217 217 215 213 213 213 208 204
219 224 240 241 249 309 314 338 335 332 331 358 9 352 335 327 312 303 302 281 296 299 279 272 274 293 303 307 306 316 319 316 316 313 309 307 306 302 299 296 294 297 306 305 302 294 287 282 280 275 272 276 270 270 244 237 228 269 291 242 305 316 298 279 257 241 229 225 217 219 214 215 214 214 211 214 213 215 215 213 212 213 213 209 202
197 211 221 224 212 269 284 327 320 313 329 352 349 335 341 341 331 315 289 296 285 292 302 292 296 315 317 322 322 319 311 309 306 302 301 300 299 294 293 294 301 306 304 301 301 301 301 291 282 275 268 267 271 271 262 231 232 205 234 288 289 259 247 281 349 289 229 231 224 218 214 213 214 210 211 215 213 212 213 212 213 211 213 210 204
206 220 209 216 211 273 292 315 295 317 353 340 334 359 2 352 343 343 341 338 327 336 335 328 325 325 318 305 305 311 309 303 303 306 303 299 294 296 303 307 304 300 295 290 292 294 293 298 297 287 274 264 267 271 272 238 224 219 218 230 236 265 296 311 319 294 326 276 261 227 217 214 212 211 210 213 211 211 210 211 208 210 208 209 207
213 216 224 222 230 249 274 286 308 332 334 317 332 4 356 345 337 324 311 310 311 302 299 302 305 307 308 304 299 296 302 303 305 307 306 305 306 305 301 297 293 291 287 285 287 290 293 293 296 291 286 278 267 265 263 262 240 229 218 231 239 243 249 261 269 291 296 282 244 228 223 219 217 213 210 209 208 209 207 207 205 205 204 204 205
195 197 230 237 213 259 284 311 338 333 314 301 332 360 334 326 323 315 307 307 308 304 313 310 304 302 304 304 305 300 289 292 300 305 306 306 303 299 295 288 284 281 283 286 291 293 293 291 291 293 295 289 272 263 262 255 242 248 198 225 234 242 243 247 249 263 270 283 289 284 266 219 210 217 214 208 207 205 203 200 197 194 194 192 194
203 204 216 225 224 254 300 329 334 324 297 294 316 324 318 308 302 303 307 298 298 302 307 305 303 303 297 300 302 302 301 298 295 300 302 300 300 297 297 296 298 302 298 292 286 285 288 291 291 290 292 293 290 275 260 253 238 248 220 239 235 243 245 241 249 240 253 272 275 262 235 236 221 218 216 211 205 203 197 195 191 185 180 181 176
204 201 226 236 261 301 316 314 314 301 283 292 313 309 302 301 302 302 303 306 308 304 305 304 305 307 299 297 294 294 298 301 301 293 295 299 299 302 300 296 293 290 287 277 276 281 287 288 285 285 286 287 286 285 271 259 247 244 223 234 246 254 254 254 237 235 243 233 259 272 241 198 200 212 208 209 202 194 192 185 179 177 175 169 168
230 227 263 250 262 276 278 294 280 285 278 287 293 283 279 278 287 293 299 302 305 305 306 303 305 306 303 302 303 303 300 298 300 295 286 292 292 291 290 289 284 281 276 280 287 292 290 287 285 284 281 278 280 283 280 266 249 242 229 225 236 238 245 256 258 252 253 271 279 274 241 214 205 201 206 201 199 192 186 179 173 171 169 164 161